Vichy, MO

9:47 PM CDT on August 24, 2016 (GMT -0500)
Rolla National

Weather History for KVIH - December, 2012

Change the Weather History Date:

Wednesday, December 19, 2012

  Actual Average Record
Temperature  
Mean Temperature 44 °F 33 °F  
Max Temperature 56 °F 42 °F 66 °F (1978)
Min Temperature 32 °F 23 °F -13 °F (1901)
Degree Days  
Heating Degree Days 21 32  
Month to date heating degree days 291 569  
Since 1 July heating degree days 1354 1516  
Cooling Degree Days 0 0  
Month to date cooling degree days 2 0  
Year to date cooling degree days 1695 1246  
Moisture  
Dew Point 38 °F    
Average Humidity 83    
Maximum Humidity 100    
Minimum Humidity 65    
Precipitation  
Precipitation 0.15 in 0.07 in 1.87 in (1995)
Month to date precipitation 1.48 1.74  
Year to date precipitation 32.40 42.71  
Sea Level Pressure  
Sea Level Pressure 29.74 in    
Wind  
Wind Speed 12 mph (East)    
Max Wind Speed 23 mph    
Max Gust Speed 29 mph    
Visibility 8 miles    
Events Rain , Thunderstorm    
T = Trace of Precipitation, MM = Missing Value Source: NWS Daily Summary

Daily Weather History Graph

Daily Weather History Graph

Search for Another Location

Airport or City:

Trip Planner

Search our weather history database for the weather conditions in past years. The results will help you decide how hot, cold, wet, or windy it might be!

Date:

Astronomy

Dec. 19, 2012 Rise Set
Actual Time 7:19 AM CST 4:49 PM CST
Civil Twilight 6:49 AM CST 5:19 PM CST
Nautical Twilight 6:16 AM CST 5:52 PM CST
Astronomical Twilight 5:44 AM CST 6:24 PM CST
Moon 11:34 AM CST (12/19) No Moon Set
Length of Visible Light 10h 30m
Length of Day
9h 30m
Waxing Crescent, 45% of the Moon is Illuminated
Dec 19
Waxing Crescent
Dec 19
First Quarter
Dec 28
Full
Jan 4
Last Quarter
Jan 11
New

Hourly Weather History & Observations

Time (CST) Temp. Windchill Dew Point Humidity Pressure Visibility Wind Dir Wind Speed Gust Speed Precip Events Conditions
12:53 AM 32.0 °F 26.4 °F 28.0 °F 85% 29.90 in 10.0 mi NNE 5.8 mph - N/A   Clear
1:53 AM 35.1 °F 28.6 °F 30.0 °F 82% 29.90 in 10.0 mi NE 8.1 mph - N/A   Clear
2:53 AM 35.1 °F 28.6 °F 30.0 °F 82% 29.91 in 10.0 mi ENE 8.1 mph - N/A   Clear
3:53 AM 34.0 °F 27.2 °F 28.9 °F 82% 29.89 in 10.0 mi ENE 8.1 mph - N/A   Clear
4:53 AM 33.1 °F 24.9 °F 30.0 °F 89% 29.90 in 9.0 mi East 10.4 mph - N/A   Clear
5:53 AM 34.0 °F 25.5 °F 30.0 °F 85% 29.91 in 9.0 mi East 11.5 mph - N/A   Clear
6:53 AM 34.0 °F 26.0 °F 30.0 °F 85% 29.89 in 9.0 mi East 10.4 mph - N/A   Clear
7:53 AM 33.1 °F 23.4 °F 30.0 °F 89% 29.90 in 7.0 mi East 13.8 mph - N/A   Clear
8:53 AM 35.1 °F 25.9 °F 30.9 °F 85% 29.90 in 6.0 mi East 13.8 mph - N/A   Clear
9:53 AM 39.0 °F 29.9 °F 32.0 °F 76% 29.90 in 9.0 mi East 17.3 mph - N/A   Clear
10:53 AM 41.0 °F 32.8 °F 32.0 °F 70% 29.88 in 10.0 mi East 16.1 mph 21.9 mph N/A   Clear
11:53 AM 43.0 °F 36.4 °F 33.1 °F 68% 29.84 in 10.0 mi East 12.7 mph - N/A   Clear
12:53 PM 44.1 °F 39.0 °F 34.0 °F 68% 29.80 in 10.0 mi East 9.2 mph - N/A   Mostly Cloudy
1:46 PM 44.6 °F 38.4 °F 35.6 °F 71% 29.78 in 10.0 mi East 12.7 mph - N/A   Overcast
1:53 PM 44.1 °F 38.6 °F 35.1 °F 71% 29.78 in 10.0 mi East 10.4 mph - N/A   Overcast
2:53 PM 45.0 °F 39.7 °F 36.0 °F 71% 29.75 in 10.0 mi East 10.4 mph - N/A   Overcast
3:31 PM 46.4 °F 42.4 °F 37.4 °F 71% 29.74 in 10.0 mi East 8.1 mph 18.4 mph N/A   Overcast
3:53 PM 46.0 °F 40.2 °F 37.9 °F 73% 29.74 in 10.0 mi East 12.7 mph - N/A   Overcast
4:48 PM 46.4 °F 41.9 °F 39.2 °F 76% 29.72 in 10.0 mi East 9.2 mph 17.3 mph N/A   Overcast
4:53 PM 46.0 °F 42.5 °F 39.0 °F 76% 29.73 in 10.0 mi East 6.9 mph - N/A   Overcast
5:53 PM 44.1 °F 38.6 °F 41.0 °F 89% 29.69 in 4.0 mi East 10.4 mph - N/A   Overcast
6:26 PM 44.6 °F 40.2 °F 42.8 °F 93% 29.68 in 2.0 mi East 8.1 mph - N/A   Overcast
6:45 PM 42.8 °F 37.5 °F 42.8 °F 100% 29.67 in 1.8 mi East 9.2 mph - N/A   Overcast
6:53 PM 43.0 °F 37.7 °F 42.1 °F 97% 29.69 in 1.8 mi East 9.2 mph - N/A   Overcast
7:53 PM 44.1 °F 39.0 °F 43.0 °F 96% 29.66 in 1.5 mi East 9.2 mph - 0.00 in   Overcast
8:53 PM 46.0 °F 40.2 °F 45.0 °F 96% 29.61 in 1.0 mi ESE 12.7 mph - 0.00 in   Overcast
9:05 PM 48.2 °F - 46.4 °F 93% 29.58 in 2.5 mi ESE 10.4 mph - N/A   Overcast
9:09 PM 48.2 °F - 46.4 °F 93% 29.58 in 3.0 mi SE 10.4 mph - N/A   Overcast
9:53 PM 54.0 °F - 52.0 °F 93% 29.55 in 10.0 mi SSE 16.1 mph 21.9 mph 0.00 in   Overcast
10:46 PM 55.4 °F - 51.8 °F 88% 29.49 in 10.0 mi SSE 18.4 mph 25.3 mph N/A   Overcast
10:53 PM 55.0 °F - 51.1 °F 86% 29.49 in 10.0 mi SSE 16.1 mph 26.5 mph N/A   Mostly Cloudy
11:19 PM 55.4 °F - 51.8 °F 88% 29.49 in 6.0 mi SSE 20.7 mph 25.3 mph 0.03 in Rain , Thunderstorm Rain
11:53 PM 55.0 °F - 51.1 °F 86% 29.48 in 8.0 mi SSE 12.7 mph 27.6 mph 0.09 in Rain , Thunderstorm Rain